�������l�o���
Date,Time,MP-1(��Sv/h),MP-2(��Sv/h),MP-3(��Sv/h),MP-4(��Sv/h),MP-5(��Sv/h),MP-6(��Sv/h),MP-7(��Sv/h),MP-8(��Sv/h),����,����(m/s),���J
2022/06/01,00:00,0.563,0.813,0.528,0.990,0.700,0.339,0.583,0.553,�k��,3.1,��
2022/06/01,00:10,0.562,0.815,0.529,0.991,0.700,0.340,0.583,0.551,���k��,2.5,��
2022/06/01,00:20,0.561,0.813,0.527,0.990,0.701,0.340,0.584,0.553,���쐼,4.8,��
2022/06/01,00:30,0.561,0.814,0.530,0.991,0.697,0.340,0.585,0.553,��,10.5,��
2022/06/01,00:40,0.561,0.816,0.528,0.990,0.699,0.340,0.586,0.552,��,11.3,��
2022/06/01,00:50,0.561,0.814,0.529,0.991,0.699,0.341,0.586,0.554,��,13.0,��
2022/06/01,01:00,0.561,0.814,0.529,0.991,0.700,0.340,0.586,0.553,���쐼,11.6,��
2022/06/01,01:10,0.561,0.814,0.531,0.993,0.700,0.341,0.586,0.553,��,9.8,��
2022/06/01,01:20,0.561,0.815,0.529,0.991,0.701,0.340,0.588,0.554,��,7.3,��
2022/06/01,01:30,0.562,0.814,0.528,0.994,0.698,0.341,0.586,0.553,��,9.0,��
2022/06/01,01:40,0.562,0.815,0.530,0.994,0.702,0.341,0.586,0.555,��,12.0,��
2022/06/01,01:50,0.564,0.816,0.530,0.995,0.701,0.340,0.587,0.555,��,11.0,��
2022/06/01,02:00,0.563,0.813,0.529,0.994,0.700,0.340,0.588,0.553,��,9.4,��
2022/06/01,02:10,0.562,0.814,0.530,0.994,0.701,0.342,0.587,0.554,���쐼,7.7,��
2022/06/01,02:20,0.563,0.815,0.532,0.994,0.701,0.340,0.586,0.554,���쐼,7.2,��
2022/06/01,02:30,0.564,0.816,0.529,0.993,0.701,0.340,0.586,0.554,���쐼,7.9,��
2022/06/01,02:40,0.563,0.816,0.531,0.995,0.702,0.341,0.587,0.554,���쐼,8.4,��
2022/06/01,02:50,0.563,0.816,0.531,0.997,0.702,0.341,0.587,0.554,���쐼,7.8,��
2022/06/01,03:00,0.562,0.816,0.530,0.993,0.703,0.341,0.587,0.553,���쐼,6.4,��
2022/06/01,03:10,0.562,0.816,0.529,0.993,0.701,0.340,0.586,0.555,���쐼,6.1,��
2022/06/01,03:20,0.563,0.814,0.529,0.995,0.702,0.340,0.587,0.555,��,5.2,��
2022/06/01,03:30,0.563,0.817,0.530,0.995,0.702,0.340,0.587,0.553,��,3.9,��
2022/06/01,03:40,0.562,0.813,0.531,0.994,0.700,0.339,0.587,0.552,��,5.1,��
2022/06/01,03:50,0.562,0.817,0.530,0.995,0.702,0.340,0.587,0.556,��,3.8,��
2022/06/01,04:00,0.561,0.818,0.531,0.998,0.702,0.340,0.585,0.553,��,3.7,��
2022/06/01,04:10,0.563,0.818,0.529,0.995,0.701,0.341,0.586,0.555,���쐼,3.4,��
2022/06/01,04:20,0.562,0.816,0.531,0.996,0.702,0.342,0.587,0.555,���쐼,5.1,��
2022/06/01,04:30,0.562,0.819,0.530,0.997,0.702,0.341,0.586,0.555,���쐼,3.5,��
2022/06/01,04:40,0.562,0.816,0.530,0.994,0.702,0.340,0.587,0.554,���쐼,4.3,��
2022/06/01,04:50,0.561,0.817,0.530,0.995,0.702,0.340,0.587,0.555,���쐼,6.2,��
2022/06/01,05:00,0.562,0.815,0.529,0.996,0.701,0.341,0.586,0.554,���쐼,5.8,��
2022/06/01,05:10,0.563,0.817,0.531,0.995,0.700,0.340,0.585,0.554,���쐼,5.3,��
2022/06/01,05:20,0.563,0.817,0.529,0.993,0.702,0.340,0.586,0.554,���쐼,6.1,��
2022/06/01,05:30,0.563,0.817,0.529,0.994,0.703,0.341,0.587,0.554,��,6.7,��
2022/06/01,05:40,0.563,0.816,0.530,0.997,0.702,0.341,0.587,0.555,��,7.2,��
2022/06/01,05:50,0.563,0.817,0.530,0.995,0.700,0.340,0.588,0.554,��,6.9,��
2022/06/01,06:00,0.565,0.818,0.531,0.995,0.700,0.340,0.586,0.554,���쐼,6.6,��
2022/06/01,06:10,0.564,0.819,0.529,0.998,0.703,0.340,0.586,0.556,��,7.2,��
2022/06/01,06:20,0.565,0.817,0.532,0.997,0.702,0.340,0.588,0.556,��,5.6,��
2022/06/01,06:30,0.564,0.818,0.531,0.998,0.702,0.341,0.587,0.554,��,5.1,��
2022/06/01,06:40,0.565,0.818,0.530,0.997,0.703,0.340,0.587,0.554,��,6.6,��
2022/06/01,06:50,0.565,0.818,0.531,0.996,0.704,0.340,0.587,0.554,��,6.7,��
2022/06/01,07:00,0.564,0.817,0.532,0.998,0.704,0.339,0.587,0.554,��,7.5,��
2022/06/01,07:10,0.565,0.816,0.533,0.997,0.704,0.339,0.586,0.554,��,6.0,��
2022/06/01,07:20,0.566,0.816,0.532,1.000,0.703,0.339,0.586,0.553,��,4.9,��
2022/06/01,07:30,0.566,0.817,0.534,0.999,0.703,0.337,0.586,0.553,��,4.2,��
2022/06/01,07:40,0.566,0.818,0.532,0.998,0.704,0.339,0.586,0.555,��,5.2,��
2022/06/01,07:50,0.565,0.818,0.532,0.999,0.703,0.338,0.587,0.554,��,4.9,��
2022/06/01,08:00,0.565,0.817,0.531,1.000,0.706,0.338,0.586,0.554,���쐼,5.2,��
2022/06/01,08:10,0.565,0.820,0.529,0.999,0.705,0.340,0.587,0.555,���쐼,5.8,��
2022/06/01,08:20,0.566,0.819,0.529,1.002,0.703,0.340,0.586,0.553,��,5.0,��
2022/06/01,08:30,0.567,0.816,0.529,0.999,0.703,0.338,0.587,0.553,��,5.3,��
2022/06/01,08:40,0.567,0.819,0.530,0.999,0.707,0.340,0.588,0.551,��,6.1,��
2022/06/01,08:50,0.566,0.816,0.530,0.999,0.703,0.339,0.587,0.554,��,5.3,��
2022/06/01,09:00,0.566,0.817,0.529,1.000,0.706,0.340,0.587,0.554,��,4.4,��
2022/06/01,09:10,0.566,0.818,0.531,1.001,0.704,0.341,0.587,0.555,���k��,5.5,��
2022/06/01,09:20,0.565,0.817,0.529,1.000,0.704,0.341,0.588,0.555,��,4.8,��
2022/06/01,09:30,0.568,0.818,0.531,1.001,0.705,0.340,0.587,0.553,���k��,2.0,��
2022/06/01,09:40,0.569,0.817,0.530,1.000,0.704,0.341,0.586,0.556,���k��,4.1,��
2022/06/01,09:50,0.568,0.822,0.529,0.998,0.705,0.340,0.586,0.554,�k�k��,4.6,��
2022/06/01,10:00,0.567,0.821,0.529,1.002,0.706,0.339,0.587,0.554,�k��,5.9,��
2022/06/01,10:10,0.568,0.820,0.529,0.999,0.706,0.341,0.588,0.556,�k��,6.5,��
2022/06/01,10:20,0.566,0.822,0.530,1.001,0.708,0.340,0.588,0.555,�k�k��,6.0,��
2022/06/01,10:30,0.567,0.823,0.530,1.001,0.708,0.342,0.588,0.556,�k��,6.8,��
2022/06/01,10:40,-,0.822,0.530,1.001,0.708,0.342,0.588,0.556,�k�k��,6.2,��
2022/06/01,10:50,-,0.820,0.532,0.998,0.710,0.340,0.588,0.556,�k��,6.3,��
2022/06/01,11:00,-,0.821,0.530,1.000,0.709,0.342,0.587,0.555,�k��,8.1,��
2022/06/01,11:10,-,0.823,0.530,1.000,0.710,0.340,0.587,0.557,�k�k��,6.3,��
2022/06/01,11:20,-,0.824,0.530,1.000,0.711,0.342,0.588,0.555,�k�k��,3.4,��
2022/06/01,11:30,-,0.823,0.533,1.001,0.711,0.341,0.587,0.554,�k��,2.3,��
2022/06/01,11:40,-,0.826,0.533,1.003,0.712,0.342,0.587,0.556,�k��,2.2,��
2022/06/01,11:50,-,0.827,0.533,1.001,0.711,0.342,0.590,0.555,�k�k��,2.9,��
2022/06/01,12:00,-,0.828,0.534,1.002,0.712,0.342,0.589,0.555,�k�k��,3.4,��
2022/06/01,12:10,-,0.826,0.536,1.003,0.712,0.343,0.588,0.556,�k�k��,2.2,��
2022/06/01,12:20,-,0.827,0.535,1.004,0.709,0.343,0.588,0.556,�k�k��,2.0,��
2022/06/01,12:30,-,0.827,0.535,1.003,0.713,0.342,0.588,0.556,��,2.3,��
2022/06/01,12:40,-,0.827,0.537,1.006,0.713,0.342,0.589,0.558,�k��,4.2,��
2022/06/01,12:50,-,0.831,0.536,1.003,0.712,0.341,0.590,0.557,���k��,4.1,��
2022/06/01,13:00,-,0.829,0.536,1.007,0.713,0.341,0.589,0.557,���k��,3.7,��
2022/06/01,13:10,-,0.828,0.537,1.002,0.713,0.342,0.588,0.556,���k��,4.0,��
2022/06/01,13:20,-,0.828,0.538,1.007,0.712,0.341,0.590,0.555,��,4.7,��
2022/06/01,13:30,-,0.829,0.538,1.003,0.713,0.341,0.589,0.557,��,3.9,��
2022/06/01,13:40,-,0.828,0.536,1.005,0.715,0.342,0.591,0.558,���k��,4.1,��
2022/06/01,13:50,-,0.828,0.537,1.004,0.712,0.343,0.588,0.557,��,3.6,��
2022/06/01,14:00,-,0.827,0.538,1.005,0.713,0.342,0.589,0.556,��,5.0,��
2022/06/01,14:10,-,0.827,0.536,1.006,0.714,0.341,0.590,0.557,���k��,3.1,��
2022/06/01,14:20,-,0.830,0.536,1.004,0.714,0.342,0.590,0.557,���k��,3.1,��
2022/06/01,14:30,-,0.829,0.538,1.006,0.715,0.342,0.590,0.557,���k��,1.7,��
2022/06/01,14:40,-,0.830,0.537,1.006,0.714,0.342,0.591,0.556,���쓌,2.5,��
2022/06/01,14:50,-,0.831,0.538,1.007,0.714,0.343,0.589,0.557,���쓌,2.0,��
2022/06/01,15:00,-,0.830,0.536,1.004,0.715,0.342,0.590,0.556,��,1.4,��
2022/06/01,15:10,-,0.830,0.538,1.005,0.715,0.343,0.590,0.558,���쓌,1.5,��
2022/06/01,15:20,-,0.832,0.539,1.006,0.716,0.341,0.592,0.558,���쓌,1.4,��
2022/06/01,15:30,-,0.832,0.538,1.007,0.715,0.342,0.590,0.557,���쓌,1.4,��
2022/06/01,15:40,-,0.828,0.537,1.004,0.717,0.342,0.591,0.556,���쓌,1.7,��
2022/06/01,15:50,-,0.830,0.538,1.008,0.714,0.343,0.590,0.557,�쓌,2.3,��
2022/06/01,16:00,-,0.833,0.540,1.007,0.716,0.341,0.591,0.557,��쓌,0.6,��
2022/06/01,16:10,-,0.834,0.538,1.005,0.717,0.343,0.591,0.557,�쓌,1.7,��
2022/06/01,16:20,0.572,0.834,0.537,1.007,0.716,0.342,0.590,0.557,�쓌,1.5,��
2022/06/01,16:30,0.574,0.836,0.536,1.008,0.715,0.342,0.591,0.557,��,3.3,��
2022/06/01,16:40,0.575,0.835,0.539,1.011,0.715,0.343,0.588,0.557,��,3.7,��
2022/06/01,16:50,0.574,0.836,0.538,1.010,0.717,0.342,0.591,0.555,��,3.4,��
2022/06/01,17:00,0.572,0.835,0.538,1.009,0.714,0.342,0.592,0.556,��쓌,2.9,��
2022/06/01,17:10,0.571,0.835,0.540,1.009,0.714,0.342,0.593,0.558,��쓌,3.5,��
2022/06/01,17:20,0.572,0.835,0.539,1.010,0.716,0.344,0.591,0.557,��,3.2,��
2022/06/01,17:30,0.571,0.836,0.539,1.011,0.717,0.342,0.592,0.558,��,3.6,��
2022/06/01,17:40,0.572,0.836,0.540,1.011,0.716,0.341,0.591,0.557,��,4.1,��
2022/06/01,17:50,0.572,0.836,0.540,1.012,0.717,0.343,0.592,0.557,��,4.3,��
2022/06/01,18:00,0.572,0.836,0.538,1.012,0.716,0.341,0.592,0.558,��,4.1,��
2022/06/01,18:10,0.570,0.839,0.541,1.010,0.714,0.344,0.592,0.558,��,4.1,��
2022/06/01,18:20,0.571,0.835,0.540,1.011,0.717,0.342,0.591,0.560,��,4.4,��
2022/06/01,18:30,0.571,0.837,0.540,1.011,0.717,0.342,0.593,0.560,��,4.5,��
2022/06/01,18:40,0.572,0.838,0.540,1.012,0.719,0.342,0.593,0.559,��,4.6,��
2022/06/01,18:50,0.571,0.839,0.539,1.012,0.719,0.342,0.592,0.559,��,4.9,��
2022/06/01,19:00,0.573,0.837,0.540,1.012,0.718,0.344,0.593,0.558,��,5.0,��
2022/06/01,19:10,0.571,0.839,0.541,1.012,0.717,0.343,0.595,0.558,��,4.7,��
2022/06/01,19:20,0.572,0.839,0.540,1.012,0.718,0.342,0.593,0.559,��,5.5,��
2022/06/01,19:30,0.573,0.839,0.542,1.010,0.719,0.342,0.595,0.559,��,6.8,��
2022/06/01,19:40,0.573,0.839,0.539,1.012,0.719,0.342,0.593,0.559,��,8.0,��
2022/06/01,19:50,0.573,0.840,0.540,1.011,0.721,0.343,0.593,0.560,��,7.9,��
2022/06/01,20:00,0.573,0.839,0.541,1.011,0.719,0.343,0.594,0.559,��,7.0,��
2022/06/01,20:10,0.573,0.839,0.541,1.012,0.718,0.344,0.594,0.560,��,7.2,��
2022/06/01,20:20,0.573,0.840,0.540,1.010,0.718,0.341,0.594,0.559,��,8.3,��
2022/06/01,20:30,0.573,0.840,0.538,1.013,0.721,0.343,0.595,0.559,��,7.7,��
2022/06/01,20:40,0.571,0.838,0.543,1.013,0.719,0.345,0.593,0.559,��,7.2,��
2022/06/01,20:50,0.573,0.839,0.539,1.012,0.719,0.344,0.594,0.559,��,5.7,��
2022/06/01,21:00,0.571,0.839,0.539,1.010,0.719,0.343,0.595,0.558,��,5.7,��
2022/06/01,21:10,0.572,0.840,0.539,1.012,0.719,0.344,0.593,0.559,��,3.5,��
2022/06/01,21:20,0.574,0.840,0.541,1.012,0.719,0.344,0.595,0.559,��쐼,3.1,��
2022/06/01,21:30,0.571,0.840,0.540,1.012,0.721,0.344,0.595,0.558,��,4.4,��
2022/06/01,21:40,0.573,0.841,0.543,1.012,0.719,0.345,0.595,0.558,��,4.2,��
2022/06/01,21:50,0.572,0.841,0.540,1.012,0.720,0.345,0.593,0.558,��,4.7,��
2022/06/01,22:00,0.573,0.840,0.540,1.011,0.720,0.344,0.594,0.559,��,4.4,��
2022/06/01,22:10,0.573,0.840,0.542,1.012,0.719,0.344,0.594,0.559,��,4.9,��
2022/06/01,22:20,0.573,0.840,0.539,1.011,0.720,0.344,0.594,0.559,��,4.4,��
2022/06/01,22:30,0.573,0.839,0.541,1.010,0.719,0.344,0.595,0.559,��,4.7,��
2022/06/01,22:40,0.572,0.838,0.541,1.012,0.718,0.345,0.595,0.559,��,4.9,��
2022/06/01,22:50,0.572,0.838,0.538,1.012,0.720,0.346,0.595,0.559,��쐼,4.0,��
2022/06/01,23:00,0.574,0.839,0.540,1.013,0.720,0.344,0.595,0.558,��쐼,3.3,��
2022/06/01,23:10,0.572,0.837,0.539,1.013,0.720,0.344,0.594,0.559,�쐼,3.4,��
2022/06/01,23:20,0.572,0.839,0.539,1.009,0.721,0.344,0.594,0.559,��쐼,2.8,��
2022/06/01,23:30,0.573,0.838,0.540,1.013,0.720,0.343,0.596,0.560,��쐼,2.6,��
2022/06/01,23:40,0.573,0.838,0.541,1.013,0.719,0.344,0.594,0.559,��,2.8,��
2022/06/01,23:50,0.573,0.835,0.539,1.013,0.720,0.345,0.594,0.560,��쐼,2.5,��
